Elwood, MO

11:44 PM CDT on August 30, 2016 (GMT -0500)
Rosecrans Memorial

Weather History for KSTJ - August, 2013

Change the Weather History Date:

Friday, August 2, 2013

  Actual Average Record
Temperature  
Mean Temperature 76 °F 77 °F  
Max Temperature 85 °F 87 °F 104 °F (1947)
Min Temperature 66 °F 67 °F 55 °F (1920)
Degree Days  
Heating Degree Days 0 0  
Month to date heating degree days 0 0  
Since 1 June heating degree days 17 9  
Since 1 July heating degree days 2 1  
Cooling Degree Days 11 12  
Month to date cooling degree days 22 24  
Year to date cooling degree days 769 778  
Since 1 June cooling degree days 643 665  
Growing Degree Days 25 (Base 50)    
Moisture  
Dew Point 67 °F    
Average Humidity 76    
Maximum Humidity 93    
Minimum Humidity 59    
Precipitation  
Precipitation 0.32 in 0.09 in 3.02 in (1948)
Month to date precipitation 0.55 0.19  
Year to date precipitation 18.96 22.51  
Sea Level Pressure  
Sea Level Pressure 29.90 in    
Wind  
Wind Speed 7 mph (SE)    
Max Wind Speed 18 mph    
Max Gust Speed 23 mph    
Visibility 10 miles    
Events Rain    
T = Trace of Precipitation, MM = Missing Value Source: NWS Daily Summary

Daily Weather History Graph

Daily Weather History Graph

Search for Another Location

Airport or City:

Trip Planner

Search our weather history database for the weather conditions in past years. The results will help you decide how hot, cold, wet, or windy it might be!

Date:

Astronomy

Aug. 02, 2013 Rise Set
Actual Time 6:19 AM CDT 8:31 PM CDT
Civil Twilight 5:49 AM CDT 9:01 PM CDT
Nautical Twilight 5:12 AM CDT 9:38 PM CDT
Astronomical Twilight 4:32 AM CDT 10:18 PM CDT
Moon 2:41 AM CDT (8/2) 5:29 PM CDT (8/2)
Length of Visible Light 15h 11m
Length of Day
14h 11m
Waning Crescent, 15% of the Moon is Illuminated
Aug 2
Waning Crescent
Aug 6
New
Aug 14
First Quarter
Aug 20
Full
Aug 28
Last Quarter

Hourly Weather History & Observations

Time (CDT) Temp. Heat Index Dew Point Humidity Pressure Visibility Wind Dir Wind Speed Gust Speed Precip Events Conditions
12:53 AM 72.0 °F - 70.0 °F 93% 30.01 in 5.0 mi West 12.7 mph - 0.13 in Rain Rain
1:53 AM 69.1 °F - 64.0 °F 84% 29.94 in 10.0 mi South 15.0 mph - 0.18 in Rain Light Rain
2:53 AM 68.0 °F - 64.0 °F 87% 29.91 in 10.0 mi WSW 9.2 mph - 0.01 in   Partly Cloudy
3:53 AM 69.1 °F - 63.0 °F 81% 29.92 in 10.0 mi SSW 8.1 mph - 0.01 in Rain Light Rain
4:53 AM 66.9 °F - 62.1 °F 84% 29.93 in 8.0 mi SW 6.9 mph - 0.03 in Rain Light Rain
5:53 AM 66.0 °F - 64.0 °F 93% 29.88 in 10.0 mi SW 15.0 mph - 0.08 in Rain Light Rain
6:53 AM 68.0 °F - 64.9 °F 90% 29.84 in 10.0 mi SSW 12.7 mph - 0.03 in Rain Light Rain
7:53 AM 69.1 °F - 64.9 °F 87% 29.86 in 10.0 mi SSW 8.1 mph - 0.00 in   Mostly Cloudy
8:53 AM 70.0 °F - 66.9 °F 90% 29.87 in 10.0 mi South 11.5 mph 19.6 mph 0.00 in   Scattered Clouds
9:53 AM 72.0 °F - 66.9 °F 84% 29.90 in 10.0 mi NE 8.1 mph - N/A   Overcast
10:53 AM 73.0 °F - 66.9 °F 81% 29.91 in 10.0 mi ESE 5.8 mph - N/A   Overcast
11:34 AM 73.4 °F - 66.2 °F 78% 29.93 in 10.0 mi East 8.1 mph - N/A   Overcast
11:50 AM 73.4 °F - 68.0 °F 83% 29.93 in 10.0 mi ESE 10.4 mph - N/A   Overcast
11:53 AM 75.0 °F - 68.0 °F 79% 29.91 in 10.0 mi East 9.2 mph - N/A   Overcast
12:10 PM 75.2 °F - 68.0 °F 78% 29.92 in 10.0 mi East 9.2 mph - N/A   Mostly Cloudy
12:39 PM 78.8 °F - 68.0 °F 69% 29.93 in 10.0 mi ESE 8.1 mph - N/A   Mostly Cloudy
12:53 PM 75.9 °F - 66.9 °F 74% 29.91 in 10.0 mi East 9.2 mph - N/A   Overcast
1:53 PM 80.1 °F 82.7 °F 68.0 °F 67% 29.89 in 10.0 mi East 4.6 mph - N/A   Mostly Cloudy
2:05 PM 80.6 °F 83.2 °F 68.0 °F 65% 29.91 in 10.0 mi Calm Calm - N/A   Scattered Clouds
2:13 PM 80.6 °F 83.2 °F 68.0 °F 65% 29.90 in 10.0 mi Calm Calm - N/A   Mostly Cloudy
2:24 PM 80.6 °F 83.2 °F 68.0 °F 65% 29.90 in 10.0 mi Calm Calm - N/A   Scattered Clouds
2:53 PM 81.0 °F 83.8 °F 68.0 °F 65% 29.88 in 10.0 mi Calm Calm - N/A   Scattered Clouds
3:03 PM 82.4 °F 86.3 °F 69.8 °F 66% 29.90 in 10.0 mi Variable 6.9 mph - N/A   Mostly Cloudy
3:15 PM 82.4 °F 85.4 °F 68.0 °F 62% 29.90 in 10.0 mi Calm Calm - N/A   Scattered Clouds
3:53 PM 82.0 °F 84.9 °F 68.0 °F 62% 29.87 in 10.0 mi Calm Calm - N/A   Mostly Cloudy
4:53 PM 82.9 °F 85.8 °F 68.0 °F 60% 29.86 in 10.0 mi NE 4.6 mph - N/A   Scattered Clouds
5:53 PM 84.0 °F 87.8 °F 69.1 °F 61% 29.87 in 10.0 mi ENE 6.9 mph - N/A   Scattered Clouds
6:53 PM 84.0 °F 87.0 °F 68.0 °F 58% 29.88 in 10.0 mi Variable 5.8 mph - N/A   Partly Cloudy
7:53 PM 82.0 °F 85.9 °F 70.0 °F 67% 29.89 in 10.0 mi SE 4.6 mph - N/A   Clear
8:53 PM 78.1 °F - 70.0 °F 76% 29.88 in 10.0 mi SE 4.6 mph - N/A   Clear
9:53 PM 77.0 °F - 69.1 °F 76% 29.91 in 10.0 mi Calm Calm - N/A   Partly Cloudy
10:53 PM 78.1 °F - 69.1 °F 74% 29.91 in 10.0 mi ENE 3.5 mph - N/A   Mostly Cloudy
11:53 PM 72.0 °F - 70.0 °F 93% 29.95 in 10.0 mi NW 3.5 mph - N/A   Mostly Cloudy